This is the latest recevied weather packets stored in our database for station/object YD2CLX-13. If no packets are shown the sender has not sent any weather packets the latest 1 day(s).
| Time | Temp. | Humidity | Pressure | Rain* | Wind** | Luminosity | Snow |
|---|---|---|---|---|---|---|---|
| 1778114583 | 14.44° C | 64% | 797.7 hPa | 0 mm | - | - | - |
| 1778113968 | 15° C | 64% | 797.6 hPa | 0 mm | - | - | - |
| 1778113351 | 18.89° C | 63% | 797.6 hPa | 0 mm | - | - | - |
| 1778112733 | 17.78° C | 63% | 797.5 hPa | 0 mm | - | - | - |
| 1778110886 | 6.11° C | 65% | 797.3 hPa | 0 mm | - | - | - |
| 1778109653 | 4.44° C | 66% | 797.2 hPa | 0 mm | - | - | - |
| 1778109036 | 5° C | 64% | 797.2 hPa | 0 mm | - | - | - |
| 1778106576 | 4.44° C | 64% | 796.7 hPa | 0 mm | - | - | - |
| 1778105960 | 4.44° C | 65% | 796.7 hPa | 0 mm | - | - | - |
| 1778104113 | 4.44° C | 65% | 796.6 hPa | 0 mm | - | - | - |
| 1778102269 | 5° C | 65% | 796.4 hPa | 0 mm | - | - | - |
| 1778101653 | 7.22° C | 65% | 796.4 hPa | 0 mm | - | - | - |
| 1778096728 | 4.44° C | 63% | 796.4 hPa | 0 mm | - | - | - |
| 1778095497 | 3.89° C | 63% | 796.5 hPa | 0 mm | - | - | - |
| 1778093035 | 5° C | 63% | 796.7 hPa | 0 mm | - | - | - |
| 1778088721 | 5° C | 62% | 797 hPa | 0 mm | - | - | - |
| 1778088106 | 5° C | 61% | 797 hPa | 0 mm | - | - | - |
| 1778086876 | 5° C | 61% | 797.2 hPa | 0 mm | - | - | - |
| 1778085648 | 5° C | 61% | 797.5 hPa | 0 mm | - | - | - |
| 1778085032 | 5.56° C | 61% | 797.5 hPa | 0 mm | - | - | - |
| 1778081954 | 8.33° C | 64% | 797.5 hPa | 0 mm | - | - | - |
| 1778080108 | 8.33° C | 64% | 797.2 hPa | 0 mm | - | - | - |
| 1778079493 | 8.33° C | 64% | 797.5 hPa | 0 mm | - | - | - |
| 1778074008 | 8.89° C | 64% | 797.8 hPa | 0 mm | - | - | - |
| 1778071575 | 9.44° C | 64% | 797.4 hPa | 0 mm | - | - | - |
* Rain latest hour (hover to see other rain measurements)
** Current wind speed in m/s (hover to see current wind gust speed)